Time,TemperatureF,DewpointF,PressureIn,WindDirection,WindDirectionDegrees,WindSpeedMPH,WindSpeedGustMPH,Humidity,HourlyPrecipIn,Conditions,Clouds,dailyrainin,SoftwareType,DateUTC
2013-03-04 00:01:00,40.0,31.0,30.10,WNW,287,2.0,3.0,69,0.00,,,0.00,Meteo,2013-03-04 05:01:00,
2013-03-04 00:02:00,40.0,31.0,30.10,WNW,287,2.0,3.0,69,0.00,,,0.00,Meteo,2013-03-04 05:02:00,
2013-03-04 00:04:00,40.0,31.0,30.10,WNW,297,1.0,2.0,69,0.00,,,0.00,Meteo,2013-03-04 05:04:00,
2013-03-04 00:06:00,40.0,31.0,30.10,WNW,295,1.0,2.0,69,0.00,,,0.00,Meteo,2013-03-04 05:06:00,
2013-03-04 00:11:00,40.0,31.0,30.10,WNW,294,2.0,3.0,70,0.00,,,0.00,Meteo,2013-03-04 05:11:00,
2013-03-04 00:16:00,39.0,30.0,30.11,WNW,291,1.0,3.0,71,0.00,,,0.00,Meteo,2013-03-04 05:16:00,
2013-03-04 00:21:00,39.0,30.0,30.11,WNW,290,0.0,1.0,71,0.00,,,0.00,Meteo,2013-03-04 05:21:00,
2013-03-04 00:26:00,39.0,31.0,30.11,North,0,0.0,0.0,72,0.00,,,0.00,Meteo,2013-03-04 05:26:00,
2013-03-04 00:31:00,38.0,30.0,30.11,North,0,0.0,0.0,73,0.00,,,0.00,Meteo,2013-03-04 05:31:00,
2013-03-04 00:36:00,38.0,31.0,30.11,North,0,0.0,0.0,75,0.00,,,0.00,Meteo,2013-03-04 05:36:00,
2013-03-04 00:41:00,38.0,31.0,30.11,North,0,0.0,0.0,75,0.00,,,0.00,Meteo,2013-03-04 05:41:00,
2013-03-04 00:46:00,37.0,30.0,30.11,North,0,0.0,0.0,76,0.00,,,0.00,Meteo,2013-03-04 05:46:00,
2013-03-04 00:51:00,37.0,31.0,30.11,North,0,0.0,0.0,78,0.00,,,0.00,Meteo,2013-03-04 05:51:00,
2013-03-04 00:56:00,36.0,30.0,30.11,North,0,0.0,0.0,79,0.00,,,0.00,Meteo,2013-03-04 05:56:00,
2013-03-04 01:01:00,36.0,30.0,30.11,North,0,0.0,0.0,79,0.00,,,0.00,Meteo,2013-03-04 06:01:00,
2013-03-04 01:06:00,36.0,30.0,30.11,North,0,0.0,0.0,80,0.00,,,0.00,Meteo,2013-03-04 06:06:00,
2013-03-04 01:11:00,35.0,30.0,30.11,North,0,0.0,0.0,81,0.00,,,0.00,Meteo,2013-03-04 06:11:00,
2013-03-04 01:16:00,35.0,30.0,30.10,North,0,0.0,0.0,82,0.00,,,0.00,Meteo,2013-03-04 06:16:00,
2013-03-04 01:21:00,35.0,30.0,30.10,North,0,0.0,0.0,82,0.00,,,0.00,Meteo,2013-03-04 06:21:00,
2013-03-04 01:26:00,35.0,30.0,30.10,North,0,0.0,0.0,83,0.00,,,0.00,Meteo,2013-03-04 06:26:00,
2013-03-04 01:31:00,34.0,30.0,30.11,North,0,0.0,0.0,84,0.00,,,0.00,Meteo,2013-03-04 06:31:00,
2013-03-04 01:36:00,34.0,30.0,30.11,North,0,0.0,0.0,84,0.00,,,0.00,Meteo,2013-03-04 06:36:00,
2013-03-04 01:41:00,34.0,30.0,30.11,North,0,0.0,0.0,85,0.00,,,0.00,Meteo,2013-03-04 06:41:00,
2013-03-04 01:46:00,34.0,30.0,30.10,WNW,288,0.0,1.0,86,0.00,,,0.00,Meteo,2013-03-04 06:46:00,
2013-03-04 01:51:00,33.0,29.0,30.10,North,0,0.0,0.0,86,0.00,,,0.00,Meteo,2013-03-04 06:51:00,
2013-03-04 01:56:00,33.0,30.0,30.10,North,0,0.0,0.0,87,0.00,,,0.00,Meteo,2013-03-04 06:56:00,
2013-03-04 02:02:00,33.0,30.0,30.10,North,0,0.0,0.0,87,0.00,,,0.00,Meteo,2013-03-04 07:02:00,
2013-03-04 02:07:00,33.0,30.0,30.10,North,0,0.0,0.0,88,0.00,,,0.00,Meteo,2013-03-04 07:07:00,
2013-03-04 02:12:00,33.0,30.0,30.10,North,0,0.0,0.0,88,0.00,,,0.00,Meteo,2013-03-04 07:12:00,
2013-03-04 02:17:00,33.0,30.0,30.10,North,0,0.0,0.0,88,0.00,,,0.00,Meteo,2013-03-04 07:17:00,
2013-03-04 02:22:00,33.0,30.0,30.10,WNW,290,0.0,1.0,89,0.00,,,0.00,Meteo,2013-03-04 07:22:00,
2013-03-04 02:27:00,33.0,30.0,30.10,North,0,0.0,0.0,89,0.00,,,0.00,Meteo,2013-03-04 07:27:00,
2013-03-04 02:33:00,33.0,30.0,30.10,North,0,0.0,0.0,89,0.00,,,0.00,Meteo,2013-03-04 07:33:00,
2013-03-04 02:38:00,33.0,30.0,30.10,North,0,0.0,0.0,90,0.00,,,0.00,Meteo,2013-03-04 07:38:00,
2013-03-04 02:44:00,32.0,29.0,30.10,North,0,0.0,0.0,90,0.00,,,0.00,Meteo,2013-03-04 07:44:00,
2013-03-04 02:49:00,32.0,29.0,30.09,North,0,0.0,0.0,90,0.00,,,0.00,Meteo,2013-03-04 07:49:00,
2013-03-04 02:54:00,33.0,31.0,30.09,North,0,0.0,0.0,91,0.00,,,0.00,Meteo,2013-03-04 07:54:00,
2013-03-04 02:59:00,33.0,31.0,30.09,North,0,0.0,0.0,91,0.00,,,0.00,Meteo,2013-03-04 07:59:00,
2013-03-04 03:04:00,32.0,30.0,30.09,North,0,0.0,0.0,91,0.00,,,0.00,Meteo,2013-03-04 08:04:00,
2013-03-04 03:09:00,32.0,30.0,30.09,North,0,0.0,0.0,91,0.00,,,0.00,Meteo,2013-03-04 08:09:00,
2013-03-04 03:14:00,32.0,30.0,30.09,North,0,0.0,0.0,91,0.00,,,0.00,Meteo,2013-03-04 08:14:00,
2013-03-04 03:20:00,32.0,30.0,30.09,North,0,0.0,0.0,91,0.00,,,0.00,Meteo,2013-03-04 08:20:00,
2013-03-04 03:25:00,32.0,30.0,30.09,WNW,289,1.0,2.0,92,0.00,,,0.00,Meteo,2013-03-04 08:25:00,
2013-03-04 03:31:00,32.0,30.0,30.09,North,0,0.0,0.0,92,0.00,,,0.00,Meteo,2013-03-04 08:31:00,
2013-03-04 03:36:00,32.0,30.0,30.09,North,0,0.0,0.0,92,0.00,,,0.00,Meteo,2013-03-04 08:36:00,
2013-03-04 03:41:00,32.0,30.0,30.09,North,0,0.0,0.0,92,0.00,,,0.00,Meteo,2013-03-04 08:41:00,
2013-03-04 03:46:00,32.0,30.0,30.09,North,0,0.0,0.0,92,0.00,,,0.00,Meteo,2013-03-04 08:46:00,
2013-03-04 03:51:00,32.0,30.0,30.09,North,0,0.0,0.0,92,0.00,,,0.00,Meteo,2013-03-04 08:51:00,
2013-03-04 03:57:00,32.0,30.0,30.09,North,0,0.0,0.0,92,0.00,,,0.00,Meteo,2013-03-04 08:57:00,
2013-03-04 04:02:00,32.0,30.0,30.09,North,0,0.0,0.0,92,0.00,,,0.00,Meteo,2013-03-04 09:02:00,
2013-03-04 04:07:00,32.0,30.0,30.09,North,0,0.0,0.0,92,0.00,,,0.00,Meteo,2013-03-04 09:07:00,
2013-03-04 04:12:00,32.0,30.0,30.09,North,0,0.0,0.0,92,0.00,,,0.00,Meteo,2013-03-04 09:12:00,
2013-03-04 04:17:00,32.0,30.0,30.08,North,0,0.0,0.0,92,0.00,,,0.00,Meteo,2013-03-04 09:17:00,
2013-03-04 04:22:00,31.0,29.0,30.08,North,0,0.0,0.0,93,0.00,,,0.00,Meteo,2013-03-04 09:22:00,
2013-03-04 04:27:00,31.0,29.0,30.08,WNW,290,1.0,1.0,93,0.00,,,0.00,Meteo,2013-03-04 09:27:00,
2013-03-04 04:32:00,32.0,30.0,30.09,North,0,0.0,0.0,93,0.00,,,0.00,Meteo,2013-03-04 09:32:00,
2013-03-04 04:37:00,31.0,29.0,30.09,North,0,0.0,0.0,93,0.00,,,0.00,Meteo,2013-03-04 09:37:00,
2013-03-04 04:43:00,31.0,29.0,30.09,North,0,0.0,0.0,93,0.00,,,0.00,Meteo,2013-03-04 09:43:00,
2013-03-04 04:48:00,31.0,29.0,30.10,North,0,0.0,0.0,93,0.00,,,0.00,Meteo,2013-03-04 09:48:00,
2013-03-04 04:53:00,31.0,29.0,30.10,North,0,0.0,0.0,93,0.00,,,0.00,Meteo,2013-03-04 09:53:00,
2013-03-04 04:58:00,31.0,29.0,30.10,North,0,0.0,0.0,93,0.00,,,0.00,Meteo,2013-03-04 09:58:00,
2013-03-04 05:03:00,31.0,29.0,30.10,North,0,0.0,0.0,93,0.00,,,0.00,Meteo,2013-03-04 10:03:00,
2013-03-04 05:08:00,31.0,29.0,30.10,North,0,0.0,0.0,94,0.00,,,0.00,Meteo,2013-03-04 10:08:00,
2013-03-04 05:13:00,31.0,29.0,30.10,North,0,0.0,0.0,93,0.00,,,0.00,Meteo,2013-03-04 10:13:00,
2013-03-04 05:18:00,31.0,29.0,30.09,North,0,0.0,0.0,93,0.00,,,0.00,Meteo,2013-03-04 10:18:00,
2013-03-04 05:23:00,31.0,29.0,30.09,North,0,0.0,0.0,94,0.00,,,0.00,Meteo,2013-03-04 10:23:00,
2013-03-04 05:28:00,31.0,29.0,30.09,WNW,290,2.0,2.0,94,0.00,,,0.00,Meteo,2013-03-04 10:28:00,
2013-03-04 05:33:00,31.0,29.0,30.11,WNW,290,1.0,2.0,94,0.00,,,0.00,Meteo,2013-03-04 10:33:00,
2013-03-04 05:38:00,31.0,29.0,30.11,WNW,290,1.0,2.0,94,0.00,,,0.00,Meteo,2013-03-04 10:38:00,
2013-03-04 05:43:00,31.0,29.0,30.11,North,0,0.0,0.0,94,0.00,,,0.00,Meteo,2013-03-04 10:43:00,
2013-03-04 05:48:00,31.0,29.0,30.11,North,0,0.0,0.0,94,0.00,,,0.00,Meteo,2013-03-04 10:48:00,
2013-03-04 05:53:00,31.0,29.0,30.11,North,0,0.0,0.0,94,0.00,,,0.00,Meteo,2013-03-04 10:53:00,
2013-03-04 05:58:00,31.0,30.0,30.11,WNW,290,1.0,2.0,95,0.00,,,0.00,Meteo,2013-03-04 10:58:00,
2013-03-04 06:04:00,31.0,30.0,30.12,North,0,0.0,0.0,95,0.00,,,0.00,Meteo,2013-03-04 11:04:00,
2013-03-04 06:09:00,31.0,30.0,30.12,North,0,0.0,0.0,95,0.00,,,0.00,Meteo,2013-03-04 11:09:00,
2013-03-04 06:14:00,31.0,30.0,30.12,North,0,0.0,0.0,95,0.00,,,0.00,Meteo,2013-03-04 11:14:00,
2013-03-04 06:19:00,31.0,30.0,30.11,North,0,0.0,0.0,95,0.00,,,0.00,Meteo,2013-03-04 11:19:00,
2013-03-04 06:24:00,31.0,30.0,30.11,North,0,0.0,0.0,95,0.00,,,0.00,Meteo,2013-03-04 11:24:00,
2013-03-04 06:29:00,31.0,30.0,30.11,North,0,0.0,0.0,95,0.00,,,0.00,Meteo,2013-03-04 11:29:00,
2013-03-04 06:34:00,31.0,30.0,30.12,North,0,0.0,0.0,95,0.00,,,0.00,Meteo,2013-03-04 11:34:00,
2013-03-04 06:39:00,31.0,30.0,30.12,WNW,290,0.0,1.0,95,0.00,,,0.00,Meteo,2013-03-04 11:39:00,
2013-03-04 06:44:00,31.0,30.0,30.12,WNW,290,0.0,1.0,95,0.00,,,0.00,Meteo,2013-03-04 11:44:00,
2013-03-04 06:49:00,31.0,30.0,30.13,WNW,300,1.0,1.0,95,0.00,,,0.00,Meteo,2013-03-04 11:49:00,
2013-03-04 06:54:00,31.0,30.0,30.13,WNW,301,1.0,2.0,95,0.00,,,0.00,Meteo,2013-03-04 11:54:00,
2013-03-04 06:59:00,31.0,30.0,30.13,NW,318,0.0,1.0,95,0.00,,,0.00,Meteo,2013-03-04 11:59:00,
2013-03-04 07:04:00,31.0,30.0,30.14,NW,319,0.0,1.0,95,0.00,,,0.00,Meteo,2013-03-04 12:04:00,
2013-03-04 07:09:00,31.0,30.0,30.14,NW,317,1.0,1.0,95,0.00,,,0.00,Meteo,2013-03-04 12:09:00,
2013-03-04 07:14:00,31.0,30.0,30.14,NW,317,0.0,1.0,95,0.00,,,0.00,Meteo,2013-03-04 12:14:00,
2013-03-04 07:19:00,32.0,31.0,30.14,NW,316,0.0,1.0,96,0.00,,,0.00,Meteo,2013-03-04 12:19:00,
2013-03-04 07:24:00,32.0,31.0,30.14,NW,315,0.0,1.0,96,0.00,,,0.00,Meteo,2013-03-04 12:24:00,
2013-03-04 07:29:00,32.0,31.0,30.14,NW,315,1.0,2.0,96,0.00,,,0.00,Meteo,2013-03-04 12:29:00,
2013-03-04 07:34:00,33.0,32.0,30.14,North,0,0.0,0.0,96,0.00,,,0.00,Meteo,2013-03-04 12:34:00,
2013-03-04 07:39:00,33.0,32.0,30.14,NW,317,1.0,2.0,96,0.00,,,0.00,Meteo,2013-03-04 12:39:00,
2013-03-04 07:44:00,34.0,33.0,30.14,NNW,346,2.0,6.0,96,0.00,,,0.00,Meteo,2013-03-04 12:44:00,
2013-03-04 07:49:00,35.0,33.0,30.15,NNW,343,2.0,3.0,94,0.00,,,0.00,Meteo,2013-03-04 12:49:00,
2013-03-04 07:54:00,36.0,33.0,30.15,NW,315,1.0,2.0,88,0.00,,,0.00,Meteo,2013-03-04 12:54:00,
2013-03-04 07:59:00,37.0,32.0,30.15,NW,320,1.0,2.0,83,0.00,,,0.00,Meteo,2013-03-04 12:59:00,
2013-03-04 08:04:00,38.0,32.0,30.15,NW,317,1.0,2.0,80,0.00,,,0.00,Meteo,2013-03-04 13:04:00,
2013-03-04 08:09:00,39.0,32.0,30.15,WNW,298,1.0,3.0,76,0.00,,,0.00,Meteo,2013-03-04 13:09:00,
2013-03-04 08:14:00,40.0,31.0,30.15,NNW,334,3.0,4.0,70,0.00,,,0.00,Meteo,2013-03-04 13:14:00,
2013-03-04 08:19:00,41.0,31.0,30.16,WNW,293,1.0,3.0,66,0.00,,,0.00,Meteo,2013-03-04 13:19:00,
2013-03-04 08:24:00,41.0,30.0,30.16,NNW,345,1.0,5.0,64,0.00,,,0.00,Meteo,2013-03-04 13:24:00,
2013-03-04 08:29:00,42.0,29.0,30.16,NNW,331,3.0,6.0,59,0.00,,,0.00,Meteo,2013-03-04 13:29:00,
2013-03-04 08:34:00,43.0,28.0,30.17,North,353,2.0,3.0,56,0.00,,,0.00,Meteo,2013-03-04 13:34:00,
2013-03-04 08:39:00,44.0,28.0,30.17,NW,322,5.0,11.0,53,0.00,,,0.00,Meteo,2013-03-04 13:39:00,
2013-03-04 08:44:00,45.0,28.0,30.17,NNW,345,2.0,3.0,52,0.00,,,0.00,Meteo,2013-03-04 13:44:00,
2013-03-04 08:49:00,45.0,27.0,30.18,North,352,6.0,11.0,50,0.00,,,0.00,Meteo,2013-03-04 13:49:00,
2013-03-04 08:54:00,46.0,28.0,30.18,NNW,343,5.0,11.0,49,0.00,,,0.00,Meteo,2013-03-04 13:54:00,
2013-03-04 08:59:00,46.0,27.0,30.18,NNW,348,4.0,6.0,48,0.00,,,0.00,Meteo,2013-03-04 13:59:00,
2013-03-04 09:04:00,47.0,28.0,30.18,NNW,342,5.0,8.0,48,0.00,,,0.00,Meteo,2013-03-04 14:04:00,
2013-03-04 09:09:00,47.0,26.0,30.18,North,352,5.0,11.0,44,0.00,,,0.00,Meteo,2013-03-04 14:09:00,
2013-03-04 09:14:00,47.0,26.0,30.18,North,351,7.0,11.0,44,0.00,,,0.00,Meteo,2013-03-04 14:14:00,
2013-03-04 09:19:00,47.0,26.0,30.18,North,2,5.0,8.0,43,0.00,,,0.00,Meteo,2013-03-04 14:19:00,
2013-03-04 09:24:00,48.0,26.0,30.18,North,352,6.0,8.0,42,0.00,,,0.00,Meteo,2013-03-04 14:24:00,
2013-03-04 09:29:00,48.0,25.0,30.18,North,352,6.0,11.0,41,0.00,,,0.00,Meteo,2013-03-04 14:29:00,
2013-03-04 09:34:00,49.0,26.0,30.17,North,353,7.0,10.0,40,0.00,,,0.00,Meteo,2013-03-04 14:34:00,
2013-03-04 09:39:00,49.0,26.0,30.17,North,355,9.0,14.0,40,0.00,,,0.00,Meteo,2013-03-04 14:39:00,
2013-03-04 09:44:00,49.0,25.0,30.17,North,354,7.0,12.0,38,0.00,,,0.00,Meteo,2013-03-04 14:44:00,
2013-03-04 09:49:00,49.0,23.0,30.17,NNW,338,5.0,10.0,36,0.00,,,0.00,Meteo,2013-03-04 14:49:00,
2013-03-04 09:54:00,50.0,26.0,30.17,NNE,31,4.0,8.0,39,0.00,,,0.00,Meteo,2013-03-04 14:54:00,
2013-03-04 09:59:00,50.0,23.0,30.17,North,353,6.0,8.0,35,0.00,,,0.00,Meteo,2013-03-04 14:59:00,
2013-03-04 10:04:00,50.0,21.0,30.18,NNW,346,9.0,12.0,32,0.00,,,0.00,Meteo,2013-03-04 15:04:00,
2013-03-04 10:09:00,51.0,22.0,30.18,NNW,340,3.0,7.0,32,0.00,,,0.00,Meteo,2013-03-04 15:09:00,
2013-03-04 10:14:00,51.0,22.0,30.18,North,351,9.0,11.0,32,0.00,,,0.00,Meteo,2013-03-04 15:14:00,
2013-03-04 10:20:00,52.0,19.0,30.17,NNW,348,8.0,10.0,27,0.00,,,0.00,Meteo,2013-03-04 15:20:00,
2013-03-04 10:25:00,52.0,23.0,30.17,North,352,5.0,7.0,32,0.00,,,0.00,Meteo,2013-03-04 15:25:00,
2013-03-04 10:31:00,52.0,20.0,30.16,North,353,7.0,10.0,28,0.00,,,0.00,Meteo,2013-03-04 15:31:00,
2013-03-04 10:36:00,53.0,22.0,30.16,North,353,5.0,7.0,29,0.00,,,0.00,Meteo,2013-03-04 15:36:00,
2013-03-04 10:41:00,54.0,22.0,30.16,NNW,328,2.0,5.0,29,0.00,,,0.00,Meteo,2013-03-04 15:41:00,
2013-03-04 10:47:00,54.0,21.0,30.16,NNW,343,2.0,4.0,27,0.00,,,0.00,Meteo,2013-03-04 15:47:00,
2013-03-04 10:52:00,55.0,21.0,30.16,North,349,3.0,6.0,26,0.00,,,0.00,Meteo,2013-03-04 15:52:00,
2013-03-04 10:57:00,55.0,22.0,30.16,North,352,6.0,7.0,27,0.00,,,0.00,Meteo,2013-03-04 15:57:00,
2013-03-04 11:02:00,55.0,21.0,30.16,NNW,342,4.0,6.0,26,0.00,,,0.00,Meteo,2013-03-04 16:02:00,
2013-03-04 11:07:00,55.0,22.0,30.16,NNW,348,7.0,8.0,27,0.00,,,0.00,Meteo,2013-03-04 16:07:00,
2013-03-04 11:12:00,55.0,22.0,30.16,WNW,302,3.0,6.0,27,0.00,,,0.00,Meteo,2013-03-04 16:12:00,
2013-03-04 11:17:00,55.0,23.0,30.16,NNW,345,1.0,2.0,28,0.00,,,0.00,Meteo,2013-03-04 16:17:00,
2013-03-04 11:22:00,56.0,22.0,30.16,NNW,343,2.0,4.0,26,0.00,,,0.00,Meteo,2013-03-04 16:22:00,
2013-03-04 11:27:00,56.0,23.0,30.16,NW,305,2.0,5.0,27,0.00,,,0.00,Meteo,2013-03-04 16:27:00,
2013-03-04 11:32:00,57.0,22.0,30.16,NW,324,5.0,7.0,26,0.00,,,0.00,Meteo,2013-03-04 16:32:00,
2013-03-04 11:37:00,57.0,22.0,30.16,North,355,1.0,2.0,26,0.00,,,0.00,Meteo,2013-03-04 16:37:00,
2013-03-04 11:42:00,57.0,23.0,30.16,North,6,5.0,7.0,27,0.00,,,0.00,Meteo,2013-03-04 16:42:00,
2013-03-04 11:47:00,56.0,21.0,30.16,NNW,330,3.0,6.0,25,0.00,,,0.00,Meteo,2013-03-04 16:47:00,
2013-03-04 11:52:00,57.0,22.0,30.16,West,265,1.0,3.0,25,0.00,,,0.00,Meteo,2013-03-04 16:52:00,
2013-03-04 11:57:00,58.0,22.0,30.16,SW,233,1.0,2.0,25,0.00,,,0.00,Meteo,2013-03-04 16:57:00,
2013-03-04 12:02:00,58.0,22.0,30.15,North,357,3.0,6.0,25,0.00,,,0.00,Meteo,2013-03-04 17:02:00,
2013-03-04 12:08:00,58.0,21.0,30.15,NNE,12,2.0,3.0,24,0.00,,,0.00,Meteo,2013-03-04 17:08:00,
2013-03-04 12:13:00,59.0,23.0,30.15,NNW,348,4.0,6.0,25,0.00,,,0.00,Meteo,2013-03-04 17:13:00,
2013-03-04 12:18:00,59.0,22.0,30.14,North,356,6.0,10.0,24,0.00,,,0.00,Meteo,2013-03-04 17:18:00,
2013-03-04 12:23:00,59.0,23.0,30.14,North,355,7.0,12.0,25,0.00,,,0.00,Meteo,2013-03-04 17:23:00,
2013-03-04 12:28:00,59.0,21.0,30.14,NNW,343,1.0,3.0,23,0.00,,,0.00,Meteo,2013-03-04 17:28:00,
2013-03-04 12:33:00,59.0,24.0,30.13,North,2,2.0,4.0,26,0.00,,,0.00,Meteo,2013-03-04 17:33:00,
2013-03-04 12:38:00,59.0,23.0,30.13,NE,41,3.0,6.0,25,0.00,,,0.00,Meteo,2013-03-04 17:38:00,
2013-03-04 12:43:00,60.0,25.0,30.13,NE,35,4.0,8.0,26,0.00,,,0.00,Meteo,2013-03-04 17:43:00,
2013-03-04 12:48:00,60.0,24.0,30.12,North,6,3.0,5.0,25,0.00,,,0.00,Meteo,2013-03-04 17:48:00,
2013-03-04 12:54:00,61.0,25.0,30.12,North,358,1.0,3.0,25,0.00,,,0.00,Meteo,2013-03-04 17:54:00,
2013-03-04 12:59:00,62.0,26.0,30.12,NE,43,4.0,8.0,25,0.00,,,0.00,Meteo,2013-03-04 17:59:00,
2013-03-04 13:04:00,62.0,23.0,30.11,North,355,6.0,8.0,22,0.00,,,0.00,Meteo,2013-03-04 18:04:00,
2013-03-04 13:09:00,61.0,23.0,30.11,North,358,1.0,2.0,23,0.00,,,0.00,Meteo,2013-03-04 18:09:00,
2013-03-04 13:14:00,60.0,22.0,30.11,NNW,347,0.0,2.0,23,0.00,,,0.00,Meteo,2013-03-04 18:14:00,
2013-03-04 13:19:00,61.0,22.0,30.11,NNE,12,2.0,6.0,22,0.00,,,0.00,Meteo,2013-03-04 18:19:00,
2013-03-04 13:24:00,61.0,21.0,30.11,NNW,335,2.0,3.0,21,0.00,,,0.00,Meteo,2013-03-04 18:24:00,
2013-03-04 13:29:00,62.0,23.0,30.11,WSW,240,2.0,3.0,22,0.00,,,0.00,Meteo,2013-03-04 18:29:00,
2013-03-04 13:30:00,62.0,23.0,30.11,WSW,241,2.0,3.0,22,0.00,,,0.00,Meteo,2013-03-04 18:30:00,
2013-03-04 13:32:00,61.0,21.0,30.11,NNE,15,2.0,5.0,21,0.00,,,0.00,Meteo,2013-03-04 18:32:00,
2013-03-04 13:37:00,62.0,24.0,30.11,ENE,72,2.0,3.0,23,0.00,,,0.00,Meteo,2013-03-04 18:37:00,
2013-03-04 13:42:00,62.0,25.0,30.11,NE,46,1.0,3.0,24,0.00,,,0.00,Meteo,2013-03-04 18:42:00,
2013-03-04 13:47:00,63.0,25.0,30.10,NE,34,0.0,2.0,23,0.00,,,0.00,Meteo,2013-03-04 18:47:00,
2013-03-04 13:52:00,63.0,22.0,30.10,ENE,69,0.0,1.0,21,0.00,,,0.00,Meteo,2013-03-04 18:52:00,
2013-03-04 13:58:00,64.0,25.0,30.10,NNE,20,3.0,6.0,23,0.00,,,0.00,Meteo,2013-03-04 18:58:00,
2013-03-04 14:03:00,63.0,22.0,30.09,North,354,1.0,2.0,21,0.00,,,0.00,Meteo,2013-03-04 19:03:00,
2013-03-04 14:08:00,63.0,24.0,30.09,North,2,4.0,7.0,22,0.00,,,0.00,Meteo,2013-03-04 19:08:00,
2013-03-04 14:14:00,63.0,24.0,30.09,NNE,28,1.0,2.0,22,0.00,,,0.00,Meteo,2013-03-04 19:14:00,
2013-03-04 14:19:00,64.0,22.0,30.08,North,350,2.0,3.0,20,0.00,,,0.00,Meteo,2013-03-04 19:19:00,
2013-03-04 14:24:00,64.0,24.0,30.08,ENE,59,4.0,7.0,22,0.00,,,0.00,Meteo,2013-03-04 19:24:00,
2013-03-04 14:29:00,65.0,24.0,30.08,North,6,1.0,2.0,21,0.00,,,0.00,Meteo,2013-03-04 19:29:00,
2013-03-04 14:34:00,64.0,23.0,30.08,NNE,20,3.0,8.0,21,0.00,,,0.00,Meteo,2013-03-04 19:34:00,
2013-03-04 14:39:00,64.0,23.0,30.08,North,351,5.0,7.0,21,0.00,,,0.00,Meteo,2013-03-04 19:39:00,
2013-03-04 14:44:00,63.0,22.0,30.08,NE,40,2.0,3.0,21,0.00,,,0.00,Meteo,2013-03-04 19:44:00,
2013-03-04 14:49:00,64.0,25.0,30.08,North,359,1.0,2.0,23,0.00,,,0.00,Meteo,2013-03-04 19:49:00,
2013-03-04 14:54:00,64.0,24.0,30.08,NNE,21,1.0,2.0,22,0.00,,,0.00,Meteo,2013-03-04 19:54:00,
2013-03-04 14:59:00,64.0,22.0,30.08,North,1,3.0,7.0,20,0.00,,,0.00,Meteo,2013-03-04 19:59:00,
2013-03-04 15:04:00,63.0,21.0,30.07,NNW,347,1.0,2.0,20,0.00,,,0.00,Meteo,2013-03-04 20:04:00,
2013-03-04 15:09:00,63.0,22.0,30.07,WSW,245,3.0,6.0,21,0.00,,,0.00,Meteo,2013-03-04 20:09:00,
2013-03-04 15:14:00,63.0,22.0,30.07,West,276,1.0,3.0,21,0.00,,,0.00,Meteo,2013-03-04 20:14:00,
2013-03-04 15:19:00,63.0,22.0,30.07,North,350,5.0,6.0,21,0.00,,,0.00,Meteo,2013-03-04 20:19:00,
2013-03-04 15:24:00,64.0,22.0,30.07,NNW,346,5.0,5.0,20,0.00,,,0.00,Meteo,2013-03-04 20:24:00,
2013-03-04 15:29:00,64.0,23.0,30.07,NNW,344,1.0,4.0,21,0.00,,,0.00,Meteo,2013-03-04 20:29:00,
2013-03-04 15:34:00,64.0,24.0,30.06,North,351,5.0,7.0,22,0.00,,,0.00,Meteo,2013-03-04 20:34:00,
2013-03-04 15:39:00,64.0,24.0,30.06,North,356,4.0,6.0,22,0.00,,,0.00,Meteo,2013-03-04 20:39:00,
2013-03-04 15:44:00,64.0,23.0,30.06,NNE,28,3.0,6.0,21,0.00,,,0.00,Meteo,2013-03-04 20:44:00,
2013-03-04 15:49:00,64.0,24.0,30.06,North,351,5.0,7.0,22,0.00,,,0.00,Meteo,2013-03-04 20:49:00,
2013-03-04 15:54:00,64.0,23.0,30.06,West,266,2.0,3.0,21,0.00,,,0.00,Meteo,2013-03-04 20:54:00,
2013-03-04 15:59:00,64.0,25.0,30.06,North,358,1.0,2.0,23,0.00,,,0.00,Meteo,2013-03-04 20:59:00,
2013-03-04 16:04:00,64.0,23.0,30.06,WNW,286,1.0,3.0,21,0.00,,,0.00,Meteo,2013-03-04 21:04:00,
2013-03-04 16:09:00,64.0,24.0,30.06,North,360,2.0,4.0,22,0.00,,,0.00,Meteo,2013-03-04 21:09:00,
2013-03-04 16:14:00,64.0,25.0,30.06,NNW,347,3.0,5.0,23,0.00,,,0.00,Meteo,2013-03-04 21:14:00,
2013-03-04 16:19:00,64.0,25.0,30.06,NW,317,2.0,4.0,23,0.00,,,0.00,Meteo,2013-03-04 21:19:00,
2013-03-04 16:24:00,64.0,24.0,30.06,NNW,346,0.0,1.0,22,0.00,,,0.00,Meteo,2013-03-04 21:24:00,
2013-03-04 16:29:00,64.0,25.0,30.06,ENE,65,2.0,4.0,23,0.00,,,0.00,Meteo,2013-03-04 21:29:00,
2013-03-04 16:34:00,64.0,24.0,30.06,North,359,1.0,2.0,22,0.00,,,0.00,Meteo,2013-03-04 21:34:00,
2013-03-04 16:39:00,64.0,24.0,30.06,NNE,12,1.0,2.0,22,0.00,,,0.00,Meteo,2013-03-04 21:39:00,
2013-03-04 16:44:00,64.0,25.0,30.06,NNE,33,1.0,2.0,23,0.00,,,0.00,Meteo,2013-03-04 21:44:00,
2013-03-04 16:49:00,64.0,25.0,30.06,NNE,32,1.0,3.0,23,0.00,,,0.00,Meteo,2013-03-04 21:49:00,
2013-03-04 16:54:00,64.0,25.0,30.06,North,358,0.0,2.0,23,0.00,,,0.00,Meteo,2013-03-04 21:54:00,
2013-03-04 16:59:00,64.0,27.0,30.06,NNE,15,1.0,2.0,24,0.00,,,0.00,Meteo,2013-03-04 21:59:00,
2013-03-04 17:04:00,64.0,24.0,30.06,North,0,0.0,0.0,22,0.00,,,0.00,Meteo,2013-03-04 22:04:00,
2013-03-04 17:09:00,64.0,25.0,30.06,NNE,19,1.0,2.0,23,0.00,,,0.00,Meteo,2013-03-04 22:09:00,
2013-03-04 17:14:00,64.0,25.0,30.06,NNE,18,1.0,2.0,23,0.00,,,0.00,Meteo,2013-03-04 22:14:00,
2013-03-04 17:19:00,63.0,27.0,30.07,NNE,19,1.0,2.0,25,0.00,,,0.00,Meteo,2013-03-04 22:19:00,
2013-03-04 17:24:00,63.0,26.0,30.07,North,0,0.0,0.0,24,0.00,,,0.00,Meteo,2013-03-04 22:24:00,
2013-03-04 17:29:00,63.0,25.0,30.07,NNE,19,2.0,3.0,23,0.00,,,0.00,Meteo,2013-03-04 22:29:00,
2013-03-04 17:34:00,63.0,25.0,30.07,NNE,18,2.0,3.0,23,0.00,,,0.00,Meteo,2013-03-04 22:34:00,
2013-03-04 17:39:00,63.0,25.0,30.07,NNE,19,2.0,2.0,23,0.00,,,0.00,Meteo,2013-03-04 22:39:00,
2013-03-04 17:44:00,62.0,25.0,30.07,NNE,19,0.0,1.0,24,0.00,,,0.00,Meteo,2013-03-04 22:44:00,
2013-03-04 17:49:00,62.0,26.0,30.07,North,0,0.0,0.0,25,0.00,,,0.00,Meteo,2013-03-04 22:49:00,
2013-03-04 17:53:00,62.0,28.0,30.07,North,0,0.0,0.0,27,0.00,,,0.00,Meteo,2013-03-04 22:53:00,
2013-03-04 17:54:00,62.0,29.0,30.07,North,0,0.0,0.0,28,0.00,,,0.00,Meteo,2013-03-04 22:54:00,
2013-03-04 18:00:00,62.0,30.0,30.08,North,0,0.0,0.0,30,0.00,,,0.00,Meteo,2013-03-04 23:00:00,
2013-03-04 18:05:00,61.0,28.0,30.08,North,0,0.0,0.0,28,0.00,,,0.00,Meteo,2013-03-04 23:05:00,
2013-03-04 18:10:00,61.0,32.0,30.08,North,0,0.0,0.0,33,0.00,,,0.00,Meteo,2013-03-04 23:10:00,
2013-03-04 18:15:00,60.0,30.0,30.08,North,0,0.0,0.0,32,0.00,,,0.00,Meteo,2013-03-04 23:15:00,
2013-03-04 18:20:00,60.0,32.0,30.08,North,0,0.0,0.0,34,0.00,,,0.00,Meteo,2013-03-04 23:20:00,
2013-03-04 18:26:00,58.0,31.0,30.08,North,0,0.0,0.0,36,0.00,,,0.00,Meteo,2013-03-04 23:26:00,
2013-03-04 18:31:00,58.0,33.0,30.08,North,0,0.0,0.0,38,0.00,,,0.00,Meteo,2013-03-04 23:31:00,
2013-03-04 18:36:00,57.0,32.0,30.09,North,0,0.0,0.0,39,0.00,,,0.00,Meteo,2013-03-04 23:36:00,
2013-03-04 18:41:00,56.0,33.0,30.09,North,0,0.0,0.0,42,0.00,,,0.00,Meteo,2013-03-04 23:41:00,
2013-03-04 18:46:00,56.0,34.0,30.09,North,0,0.0,0.0,44,0.00,,,0.00,Meteo,2013-03-04 23:46:00,
2013-03-04 18:51:00,55.0,35.0,30.09,North,0,0.0,0.0,46,0.00,,,0.00,Meteo,2013-03-04 23:51:00,
2013-03-04 18:56:00,54.0,36.0,30.09,ESE,122,3.0,8.0,50,0.00,,,0.00,Meteo,2013-03-04 23:56:00,
2013-03-04 19:01:00,53.0,35.0,30.09,ENE,76,1.0,3.0,51,0.00,,,0.00,Meteo,2013-03-05 00:01:00,
2013-03-04 19:06:00,53.0,35.0,30.09,ESE,112,3.0,6.0,51,0.00,,,0.00,Meteo,2013-03-05 00:06:00,
2013-03-04 19:11:00,53.0,35.0,30.09,ESE,107,1.0,3.0,51,0.00,,,0.00,Meteo,2013-03-05 00:11:00,
2013-03-04 19:16:00,53.0,35.0,30.10,North,0,0.0,0.0,51,0.00,,,0.00,Meteo,2013-03-05 00:16:00,
2013-03-04 19:21:00,53.0,36.0,30.10,ESE,110,0.0,2.0,52,0.00,,,0.00,Meteo,2013-03-05 00:21:00,
2013-03-04 19:26:00,53.0,37.0,30.10,ESE,102,1.0,2.0,54,0.00,,,0.00,Meteo,2013-03-05 00:26:00,
2013-03-04 19:31:00,52.0,35.0,30.10,North,0,0.0,0.0,52,0.00,,,0.00,Meteo,2013-03-05 00:31:00,
2013-03-04 19:36:00,52.0,35.0,30.10,ESE,110,1.0,3.0,53,0.00,,,0.00,Meteo,2013-03-05 00:36:00,
2013-03-04 19:41:00,52.0,35.0,30.10,North,0,0.0,0.0,53,0.00,,,0.00,Meteo,2013-03-05 00:41:00,
2013-03-04 19:46:00,52.0,36.0,30.11,ESE,104,0.0,1.0,54,0.00,,,0.00,Meteo,2013-03-05 00:46:00,
2013-03-04 19:51:00,51.0,35.0,30.11,North,0,0.0,0.0,55,0.00,,,0.00,Meteo,2013-03-05 00:51:00,
2013-03-04 19:56:00,51.0,36.0,30.11,North,0,0.0,0.0,56,0.00,,,0.00,Meteo,2013-03-05 00:56:00,
2013-03-04 20:01:00,50.0,35.0,30.11,North,0,0.0,0.0,57,0.00,,,0.00,Meteo,2013-03-05 01:01:00,
2013-03-04 20:06:00,50.0,36.0,30.11,North,0,0.0,0.0,58,0.00,,,0.00,Meteo,2013-03-05 01:06:00,
2013-03-04 20:11:00,50.0,36.0,30.11,ESE,104,0.0,1.0,59,0.00,,,0.00,Meteo,2013-03-05 01:11:00,
2013-03-04 20:16:00,49.0,35.0,30.11,ESE,103,0.0,1.0,59,0.00,,,0.00,Meteo,2013-03-05 01:16:00,
2013-03-04 20:21:00,49.0,36.0,30.11,ESE,106,1.0,3.0,60,0.00,,,0.00,Meteo,2013-03-05 01:21:00,
2013-03-04 20:26:00,49.0,36.0,30.11,North,0,0.0,0.0,60,0.00,,,0.00,Meteo,2013-03-05 01:26:00,
2013-03-04 20:31:00,49.0,36.0,30.12,ESE,102,0.0,1.0,61,0.00,,,0.00,Meteo,2013-03-05 01:31:00,
2013-03-04 20:36:00,49.0,37.0,30.12,ESE,103,0.0,1.0,62,0.00,,,0.00,Meteo,2013-03-05 01:36:00,
2013-03-04 20:41:00,48.0,36.0,30.12,North,0,0.0,0.0,63,0.00,,,0.00,Meteo,2013-03-05 01:41:00,
2013-03-04 20:46:00,48.0,36.0,30.12,ESE,103,0.0,1.0,64,0.00,,,0.00,Meteo,2013-03-05 01:46:00,
2013-03-04 20:51:00,48.0,37.0,30.12,ESE,104,0.0,1.0,66,0.00,,,0.00,Meteo,2013-03-05 01:51:00,
2013-03-04 20:56:00,48.0,37.0,30.12,North,0,0.0,0.0,66,0.00,,,0.00,Meteo,2013-03-05 01:56:00,
2013-03-04 21:01:00,47.0,37.0,30.12,North,0,0.0,0.0,67,0.00,,,0.00,Meteo,2013-03-05 02:01:00,
2013-03-04 21:06:00,47.0,37.0,30.12,North,0,0.0,0.0,67,0.00,,,0.00,Meteo,2013-03-05 02:06:00,
2013-03-04 21:11:00,47.0,37.0,30.12,SE,128,0.0,5.0,67,0.00,,,0.00,Meteo,2013-03-05 02:11:00,
2013-03-04 21:16:00,47.0,37.0,30.12,SE,133,1.0,2.0,67,0.00,,,0.00,Meteo,2013-03-05 02:16:00,
2013-03-04 21:21:00,47.0,37.0,30.12,SE,128,1.0,3.0,67,0.00,,,0.00,Meteo,2013-03-05 02:21:00,
2013-03-04 21:26:00,47.0,37.0,30.12,SE,128,0.0,1.0,68,0.00,,,0.00,Meteo,2013-03-05 02:26:00,
2013-03-04 21:31:00,47.0,37.0,30.12,SE,127,1.0,3.0,68,0.00,,,0.00,Meteo,2013-03-05 02:31:00,
2013-03-04 21:36:00,47.0,37.0,30.12,North,0,0.0,0.0,69,0.00,,,0.00,Meteo,2013-03-05 02:36:00,
2013-03-04 21:41:00,46.0,36.0,30.12,North,0,0.0,0.0,69,0.00,,,0.00,Meteo,2013-03-05 02:41:00,
2013-03-04 21:46:00,46.0,37.0,30.12,SE,128,0.0,1.0,70,0.00,,,0.00,Meteo,2013-03-05 02:46:00,
2013-03-04 21:51:00,46.0,37.0,30.12,North,0,0.0,0.0,70,0.00,,,0.00,Meteo,2013-03-05 02:51:00,
2013-03-04 21:56:00,46.0,37.0,30.12,SE,127,0.0,1.0,71,0.00,,,0.00,Meteo,2013-03-05 02:56:00,
2013-03-04 22:01:00,46.0,37.0,30.12,North,0,0.0,0.0,72,0.00,,,0.00,Meteo,2013-03-05 03:01:00,
2013-03-04 22:06:00,46.0,37.0,30.12,North,0,0.0,0.0,72,0.00,,,0.00,Meteo,2013-03-05 03:06:00,
2013-03-04 22:11:00,46.0,37.0,30.12,North,0,0.0,0.0,72,0.00,,,0.00,Meteo,2013-03-05 03:11:00,
2013-03-04 22:16:00,45.0,37.0,30.12,North,0,0.0,0.0,73,0.00,,,0.00,Meteo,2013-03-05 03:16:00,
2013-03-04 22:21:00,45.0,37.0,30.12,North,0,0.0,0.0,74,0.00,,,0.00,Meteo,2013-03-05 03:21:00,
2013-03-04 22:26:00,45.0,37.0,30.12,North,0,0.0,0.0,74,0.00,,,0.00,Meteo,2013-03-05 03:26:00,
2013-03-04 22:31:00,45.0,38.0,30.12,North,0,0.0,0.0,75,0.00,,,0.00,Meteo,2013-03-05 03:31:00,
2013-03-04 22:36:00,45.0,38.0,30.12,SE,129,0.0,2.0,76,0.00,,,0.00,Meteo,2013-03-05 03:36:00,
2013-03-04 22:41:00,45.0,38.0,30.12,North,0,0.0,0.0,77,0.00,,,0.00,Meteo,2013-03-05 03:41:00,
2013-03-04 22:46:00,45.0,38.0,30.12,North,0,0.0,0.0,77,0.00,,,0.00,Meteo,2013-03-05 03:46:00,
2013-03-04 22:51:00,44.0,37.0,30.12,SE,127,0.0,1.0,77,0.00,,,0.00,Meteo,2013-03-05 03:51:00,
2013-03-04 22:56:00,44.0,37.0,30.12,SE,126,1.0,2.0,77,0.00,,,0.00,Meteo,2013-03-05 03:56:00,
2013-03-04 23:01:00,44.0,37.0,30.11,SE,127,0.0,1.0,77,0.00,,,0.00,Meteo,2013-03-05 04:01:00,
2013-03-04 23:06:00,44.0,38.0,30.11,North,0,0.0,0.0,78,0.00,,,0.00,Meteo,2013-03-05 04:06:00,
2013-03-04 23:11:00,44.0,38.0,30.11,North,0,0.0,0.0,78,0.00,,,0.00,Meteo,2013-03-05 04:11:00,
2013-03-04 23:16:00,44.0,38.0,30.11,North,0,0.0,0.0,79,0.00,,,0.00,Meteo,2013-03-05 04:16:00,
2013-03-04 23:21:00,44.0,38.0,30.11,North,0,0.0,0.0,79,0.00,,,0.00,Meteo,2013-03-05 04:21:00,
2013-03-04 23:26:00,44.0,38.0,30.11,North,0,0.0,0.0,79,0.00,,,0.00,Meteo,2013-03-05 04:26:00,
2013-03-04 23:31:00,43.0,37.0,30.10,North,0,0.0,0.0,80,0.00,,,0.00,Meteo,2013-03-05 04:31:00,
2013-03-04 23:36:00,43.0,37.0,30.10,North,0,0.0,0.0,80,0.00,,,0.00,Meteo,2013-03-05 04:36:00,
2013-03-04 23:42:00,43.0,38.0,30.10,North,0,0.0,0.0,81,0.00,,,0.00,Meteo,2013-03-05 04:42:00,
2013-03-04 23:47:00,43.0,38.0,30.10,North,0,0.0,0.0,81,0.00,,,0.00,Meteo,2013-03-05 04:47:00,
2013-03-04 23:52:00,43.0,38.0,30.10,North,0,0.0,0.0,82,0.00,,,0.00,Meteo,2013-03-05 04:52:00,
2013-03-04 23:57:00,43.0,38.0,30.10,North,0,0.0,0.0,83,0.00,,,0.00,Meteo,2013-03-05 04:57:00,